GW4545 Weather Reports


time (UTC)temp
F
wind
direction
speed
knots
gust
knots
rain 1hr
in
rain 24hr
in
rain mn
in
humidity
%
barometer
mb
20260901084559 56 0 0.0 1.7 0.00 0.00 0.00 87 1011.3
20260901083050 56 0 0.0 1.7 0.00 0.00 0.00 86 1011.3
20260901081552 56 0 0.0 0.0 0.00 0.00 0.00 85 1011.1
20260901080059 56 0 0.0 0.0 0.00 0.00 0.00 85 1011.0
20260901074558 57 140 0.9 1.7 0.00 0.00 0.00 84 1010.9
20260901073052 58 0 0.0 1.7 0.00 0.00 0.00 82 1010.7
20260901071550 58 140 0.9 2.6 0.00 0.00 0.00 82 1010.5
20260901070059 59 28 0.0 0.9 0.00 0.00 0.00 79 1010.3
20260901064555 61 46 0.0 2.6 0.00 0.00 0.00 79 1010.2
20260901063110 61 0 0.0 1.7 0.00 0.00 0.00 77 1010.0
20260901061549 62 5 0.0 3.5 0.00 0.00 0.00 76 1009.8
20260901060057 63 5 0.9 4.3 0.00 0.00 0.00 74 1009.9
20260901054551 64 348 1.7 5.2 0.00 0.00 0.00 72 1009.8
20260901053101 65 300 2.6 8.7 0.00 0.00 0.00 71 1009.9
20260901051611 65 305 2.6 10.4 0.00 0.00 0.00 70 1009.6
20260901050050 66 314 0.9 7.8 0.00 0.00 0.00 68 1009.7
20260901044552 66 329 2.6 7.8 0.00 0.00 0.00 68 1009.7
20260901043058 66 0 0.0 4.3 0.00 0.00 0.00 69 1009.6
20260901041552 67 314 0.9 2.6 0.00 0.00 0.00 68 1009.4
20260901040106 68 9 0.0 2.6 0.00 0.00 0.00 65 1009.1
20260901034603 69 210 0.9 2.6 0.00 0.00 0.00 63 1008.9
20260901033114 70 296 0.9 2.6 0.00 0.00 0.00 62 1008.3
20260901031557 71 310 0.9 4.3 0.00 0.00 0.00 60 1008.5
20260901030055 72 285 0.9 5.2 0.00 0.00 0.00 58 1008.6
20260901024610 73 302 3.5 9.6 0.00 0.00 0.00 56 1008.6
20260901023057 75 272 3.5 7.8 0.00 0.00 0.00 54 1008.3
20260901021608 77 279 2.6 8.7 0.00 0.00 0.00 51 1008.3
20260901020105 79 333 1.7 7.0 0.00 0.00 0.00 47 1008.3
20260901014619 82 279 3.5 8.7 0.00 0.00 0.00 42 1008.2
20260901013057 86 189 0.9 2.6 0.00 0.00 0.00 27 1008.0
20260901011552 86 0 0.0 3.5 0.00 0.00 0.00 30 1008.2
20260901010059 86 0 0.0 4.3 0.00 0.00 0.00 30 1008.2
20260901004617 86 0 0.0 6.1 0.00 0.00 0.00 28 1008.1
20260901003055 86 128 0.9 3.5 0.00 0.00 0.00 28 1008.1
20260901001555 86 142 0.9 3.5 0.00 0.00 0.00 28 1008.1
20260831234557 86 55 1.7 4.3 0.00 0.00 0.00 28 1008.2
20260831233052 86 105 0.9 5.2 0.00 0.00 0.00 26 1008.3
20260831231556 86 88 0.9 3.5 0.00 0.00 0.00 28 1008.5
20260831230058 86 199 0.9 5.2 0.00 0.00 0.00 28 1008.7
20260831224550 85 82 1.7 3.5 0.00 0.00 0.00 29 1008.7
20260831223105 85 201 1.7 6.1 0.00 0.00 0.00 28 1008.8
20260831221557 83 100 2.6 7.0 0.00 0.00 0.00 30 1009.1
20260831220057 83 0 1.7 7.0 0.00 0.00 0.00 30 1009.3
20260831214550 84 90 1.7 6.1 0.00 0.00 0.00 30 1009.4
20260831213057 82 65 0.9 5.2 0.00 0.00 0.00 32 1009.5
20260831211555 82 79 3.5 8.7 0.00 0.00 0.00 35 1009.6
20260831204549 82 119 3.5 6.1 0.00 0.00 0.00 33 1010.0
20260831203059 81 88 1.7 7.0 0.00 0.00 0.00 36 1010.2
20260831201552 80 161 0.9 7.8 0.00 0.00 0.00 36 1010.4
20260831200056 80 142 3.5 7.0 0.00 0.00 0.00 37 1010.7
20260831194635 80 92 1.7 6.1 0.00 0.00 0.00 37 1010.7
20260831193057 79 284 1.7 5.2 0.00 0.00 0.00 39 1010.8
20260831191553 78 122 2.6 5.2 0.00 0.00 0.00 39 1011.0
20260831190110 77 0 0.9 4.3 0.00 0.00 0.00 43 1011.2
20260831184602 77 86 2.6 7.0 0.00 0.00 0.00 43 1011.5
20260831183052 75 234 1.7 5.2 0.00 0.00 0.00 46 1011.3
20260831181554 75 0 1.7 6.1 0.00 0.00 0.00 49 1011.7
20260831174634 72 30 2.6 7.0 0.00 0.00 0.00 54 1011.8
20260831173105 71 285 1.7 7.8 0.00 0.00 0.00 57 1012.0
20260831171559 71 267 1.7 5.2 0.00 0.00 0.00 57 1011.9
20260831170059 68 11 2.6 7.8 0.00 0.00 0.00 59 1011.9
20260831164557 67 313 2.6 9.6 0.00 0.00 0.00 61 1012.1
20260831163107 66 292 3.5 12.2 0.00 0.00 0.00 62 1012.2
20260831161603 66 325 2.6 8.7 0.00 0.00 0.00 64 1012.4
20260831160055 65 5 1.7 7.0 0.00 0.00 0.00 65 1012.5
20260831154624 64 319 1.7 7.8 0.00 0.00 0.00 65 1012.5
20260831153118 63 290 1.7 5.2 0.00 0.00 0.00 68 1012.5
20260831151554 62 343 1.7 7.0 0.00 0.00 0.00 70 1012.7
20260831150059 60 308 0.0 3.5 0.00 0.00 0.00 71 1012.6
20260831144600 59 295 0.9 5.2 0.00 0.00 0.00 75 1012.8
20260831143055 57 262 1.7 4.3 0.00 0.00 0.00 77 1012.8
20260831141555 55 0 0.0 3.5 0.00 0.00 0.00 81 1012.7
20260831140051 54 279 0.9 2.6 0.00 0.00 0.00 82 1012.6
20260831134608 53 252 0.9 2.6 0.00 0.00 0.00 84 1012.7
20260831133102 51 254 1.7 3.5 0.00 0.00 0.00 87 1012.7
20260831131558 52 193 0.9 2.6 0.00 0.00 0.00 85 1012.8
20260831130109 51 204 0.9 2.6 0.00 0.00 0.00 86 1012.8
20260831124552 52 212 0.9 2.6 0.00 0.00 0.00 85 1013.0
20260831123103 52 169 0.0 1.7 0.00 0.00 0.00 84 1013.2
20260831121608 54 0 0.0 1.7 0.00 0.00 0.00 81 1013.3
20260831120104 55 19 0.0 2.6 0.00 0.00 0.00 80 1013.4
20260831114604 54 231 0.9 2.6 0.00 0.00 0.00 80 1013.6
20260831113108 56 0 0.0 1.7 0.00 0.00 0.00 76 1013.6
20260831111550 58 0 0.0 3.5 0.00 0.00 0.00 75 1013.7
20260831110053 58 0 0.0 3.5 0.00 0.00 0.00 74 1013.6
20260831104600 58 281 0.9 2.6 0.00 0.00 0.00 75 1013.6
20260831103052 58 288 0.9 2.6 0.00 0.00 0.00 73 1013.8
20260831101603 59 284 0.0 2.6 0.00 0.00 0.00 73 1013.9
20260831100057 59 5 0.0 3.5 0.00 0.00 0.00 72 1014.2
20260831094603 59 300 1.7 3.5 0.00 0.00 0.00 72 1014.3
20260831093139 60 279 0.9 2.6 0.00 0.00 0.00 71 1014.4
20260831091552 60 0 0.0 3.5 0.00 0.00 0.00 70 1014.4
20260831090055 60 270 1.7 7.0 0.00 0.00 0.00 71 1014.6